Tracking 29892 objects as of 21-Nov-2024
HD Live streaming from Space Station
objects crossing your sky now

STARLINK-4310

Track STARLINK-4310 now!
10-day predictions
STARLINK-4310 is classified as:


NORAD ID: 53074
Int'l Code: 2022-077AH
Perigee: 568.1 km
Apogee: 572.2 km
Inclination: 97.7 °
Period: 95.9 minutes
Semi major axis: 6941 km
RCS: Unknown
Launch date: July 11, 2022
Source: United States (US)
Launch site: AIR FORCE WESTERN TEST RANGE (AFWTR)
Your satellite tracking list
Your tracking list is empty




NASA's NSSDC Master Catalog

Two Line Element Set (TLE):
1 53074U 22077AH  24325.43898544 -.00002327  00000-0 -17663-3 0  9990
2 53074  97.6551 144.0455 0002913  57.5022 302.6483 15.01255317129764
Source of the keplerian elements: AFSPC